Lid_Strength_Index
7 11 14 12 10 11 12 12 13 10 9 11 12 13 11 10 11 11 11 11 11 10 7 5 4 3 3 2 2 2 1 1 1 1 1 1 2 1 1 1 1 0 1 1
10 13 11 10 11 12 12 13 13 11 10 11 11 12 11 11 11 10 10 11 10 10 10 9 7 4 3 2 2 2 2 1 1 1 1 1 1 1 1 1 1 1 0 1
12 10 8 9 10 12 12 13 14 14 12 11 12 14 12 11 10 9 9 9 9 9 9 9 9 8 5 4 3 2 2 1 1 1 1 1 2 1 2 1 1 1 1 1
10 8 9 10 10 10 13 11 11 13 14 18 13 19 15 13 12 11 10 9 8 7 7 6 8 8 7 6 5 4 2 2 1 1 2 2 2 3 2 1 1 1 1 1
12 10 11 11 11 9 11 9 10 12 14 16 16 18 17 13 14 13 11 9 9 8 7 7 6 6 6 5 4 5 4 3 3 2 2 2 2 2 2 2 2 1 1 1
10 7 8 9 8 9 9 10 11 11 13 19 16 17 18 15 14 13 11 11 10 9 8 8 7 7 7 6 5 5 4 4 3 2 2 2 2 2 3 3 2 2 2 1
12 11 8 8 11 9 10 13 19 20 20 21 16 16 17 14 12 12 12 11 11 9 10 9 9 8 8 7 7 6 5 5 4 4 2 2 2 2 2 3 3 3 2 2
16 17 11 8 10 12 12 12 17 21 21 19 16 19 17 13 12 11 11 11 11 10 9 9 9 8 8 7 7 7 6 6 5 5 4 3 2 2 2 2 3 2 2 2
14 14 9 9 8 9 13 15 11 16 17 19 17 16 13 12 12 11 12 11 11 10 10 9 9 8 7 7 7 6 7 6 5 5 4 3 3 3 3 2 3 3 2 2
11 15 10 9 8 8 11 9 16 15 22 22 18 18 17 14 12 11 11 11 10 10 10 9 8 8 7 7 7 6 6 6 5 5 5 4 3 2 2 3 3 3 3 3
10 13 14 11 12 13 12 14 13 13 15 19 20 18 13 12 12 12 11 10 10 10 9 9 8 8 7 7 7 6 6 5 4 4 4 3 3 2 2 3 3 4 6 6
9 12 16 14 10 9 10 12 12 17 18 16 16 16 11 11 10 10 10 10 10 9 9 8 8 7 7 7 7 6 6 6 4 3 3 3 3 3 4 4 5 6 7 7
9 13 18 16 13 11 13 11 11 12 13 16 19 17 9 8 9 9 10 9 8 8 9 8 8 7 7 7 7 7 7 7 6 6 5 5 6 5 5 5 6 6 7 8
8 12 15 17 15 13 15 13 12 13 17 16 15 14 11 10 9 8 8 8 8 9 8 8 8 8 7 6 6 7 7 7 7 7 7 7 6 6 6 6 7 7 8 9
9 15 13 13 12 13 14 13 13 13 13 16 14 13 11 10 9 8 7 7 7 7 8 8 8 7 7 7 7 6 7 7 7 7 7 7 7 7 7 7 8 9 9 10
9 16 14 16 12 12 15 13 12 12 12 13 12 13 9 8 8 9 7 7 7 7 6 7 6 6 6 6 6 6 7 7 7 7 7 7 7 7 8 8 9 9 10 10
11 14 17 20 14 14 16 13 12 12 11 11 14 12 8 9 8 7 7 6 6 6 6 5 6 6 5 5 5 6 6 7 7 8 7 7 8 8 9 9 9 10 10 11
13 13 15 16 19 20 13 10 10 11 11 10 10 10 9 9 8 8 7 6 6 5 5 5 4 6 8 8 9 8 8 8 8 8 8 9 9 9 10 10 11 11 11 12
8 11 15 17 18 15 12 10 11 12 12 9 10 10 9 8 8 9 6 6 6 7 8 9 10 10 11 11 10 9 10 11 12 13 13 13 13 11 11 12 12 12 13 13
9 9 13 18 18 24 13 9 7 8 14 9 9 9 9 8 12 10 8 7 9 10 11 12 12 13 13 13 12 13 14 15 16 16 16 15 15 14 13 13 14 15 14 14
16 13 15 15 16 14 10 8 7 16 13 8 7 7 7 9 9 8 9 10 11 12 13 13 15 16 16 15 14 16 17 18 17 16 16 16 16 16 16 16 16 16 15 15
16 17 17 17 17 18 8 9 11 8 8 8 7 7 7 6 7 8 10 12 13 14 15 15 16 18 18 17 16 18 19 18 17 17 18 18 18 17 17 18 17 17 17 17
14 11 13 13 14 8 8 8 6 6 7 7 7 7 7 7 8 10 11 14 15 16 15 16 18 19 20 20 19 20 20 19 19 19 19 19 19 19 18 20 19 18 18 18
11 9 11 11 10 9 7 6 6 6 7 8 10 11 10 10 10 11 12 13 15 16 17 17 18 19 21 21 21 22 21 20 20 21 20 19 20 20 19 18 18 19 19 19
11 10 10 11 9 8 8 7 6 7 8 9 10 11 12 12 11 12 13 15 16 17 18 18 19 20 21 21 22 22 21 21 19 19 20 20 20 21 20 20 20 19 19 19
9 10 11 12 8 8 8 8 9 9 11 12 12 12 13 13 13 14 16 16 16 18 18 19 20 21 22 23 22 22 21 21 21 20 21 22 21 20 20 20 20 18 18 18